Wind_Gust
15 15 15 14 14 14 14 14 14 15 15 15 14 15 14 14 14 14 14 15 14 14 14 14 14 15 16 16 18 18 17 20 22 19 17 31 15 19 14 9 16 19 10 4 7 10 12 13 14 14 15 9 11 13 12 15 14 9 14 12 11 13 16 18 21 11 5 8 7 15 12 8 9 7 7 8 4 6 18 25 24 22 22 23 26 27 25 22
16 16 16 15 15 15 14 14 14 14 15 14 14 15 15 14 14 14 15 14 14 15 14 14 15 15 15 16 17 17 18 18 20 20 33 22 15 15 9 11 10 10 6 6 11 13 13 14 14 12 14 13 6 14 8 16 13 13 10 10 17 13 25 18 18 9 7 8 7 5 12 3 3 3 8 9 2 5 22 21 23 27 27 25 27 24 23 22
16 16 16 16 16 16 15 15 15 15 14 15 15 15 15 15 15 14 14 14 14 15 14 14 15 15 16 16 16 15 18 19 17 21 29 22 29 16 13 11 13 10 9 11 14 15 16 13 14 14 13 13 10 15 14 18 16 13 9 12 17 15 18 20 19 14 8 10 5 9 6 3 7 14 6 9 6 8 22 26 21 29 28 26 24 24 23 20
16 16 17 17 16 16 15 15 15 15 15 16 15 15 15 15 15 13 13 14 14 14 14 14 14 15 16 16 16 17 16 17 13 9 9 15 22 21 15 13 12 12 7 13 14 18 15 17 13 15 14 14 11 17 15 13 16 12 15 16 16 12 16 14 18 21 9 14 9 7 8 8 6 11 5 6 11 9 9 29 30 28 28 27 27 25 23 22
17 17 16 16 16 16 16 16 16 16 15 15 15 16 15 15 15 14 13 14 14 13 13 14 14 15 15 16 14 15 15 7 7 5 4 12 21 19 15 12 11 10 10 10 12 18 23 21 19 14 14 13 13 10 15 14 18 9 15 17 19 17 21 19 12 22 12 10 10 7 7 7 6 4 5 8 14 4 16 26 30 30 31 29 27 24 24 23
18 17 17 16 16 16 16 16 16 15 15 15 15 15 15 14 14 14 14 12 13 14 13 13 13 14 15 16 18 14 9 11 8 10 7 10 14 14 14 12 10 4 6 11 15 16 17 15 16 13 11 10 8 13 9 16 11 21 13 12 11 12 15 12 18 11 7 11 10 9 7 7 5 8 13 5 7 13 27 34 26 24 25 25 25 26 20 21
18 17 17 16 16 17 17 17 16 16 15 15 14 15 15 15 13 13 13 13 13 12 12 12 13 15 15 15 17 11 10 23 15 7 11 8 11 11 9 8 8 4 7 14 16 19 13 17 11 9 10 10 11 20 19 13 15 14 15 8 16 17 17 16 14 7 7 6 7 11 8 8 7 12 6 8 17 29 31 29 26 23 20 22 24 19 21 19
18 18 17 16 17 17 16 16 16 16 16 16 16 15 14 14 14 14 14 13 12 12 12 11 11 13 14 16 10 9 11 18 11 9 10 9 8 8 8 7 7 7 11 16 16 19 18 16 12 11 14 11 8 18 13 18 13 19 24 10 16 16 16 11 13 5 3 3 8 8 9 10 11 13 9 15 27 30 28 24 24 23 21 19 20 19 18 16
19 18 17 17 17 17 17 17 16 16 15 15 15 15 15 14 14 13 13 12 12 11 11 12 12 13 11 11 9 13 11 11 12 11 14 12 9 9 9 12 11 11 14 15 16 19 17 11 14 11 11 16 15 18 14 13 17 19 11 9 8 13 13 8 5 4 5 9 8 9 13 14 20 9 7 19 27 30 27 27 24 24 22 20 17 16 16 16
19 18 17 17 18 18 17 16 16 16 16 15 15 15 14 14 13 13 13 13 12 10 10 11 11 11 13 11 11 7 9 13 13 14 14 12 12 10 11 10 14 13 15 16 15 17 20 16 13 12 17 18 15 16 16 10 11 5 4 9 13 17 19 9 6 11 10 10 8 12 12 15 11 13 8 22 23 27 29 27 22 22 23 19 18 16 12 14
19 18 18 17 18 18 17 17 16 16 16 16 16 15 15 14 14 14 12 12 11 11 10 10 11 12 12 11 10 11 6 11 10 12 13 11 12 11 13 12 14 18 16 16 19 21 20 20 12 12 11 14 6 13 13 14 9 11 9 11 8 9 10 6 7 12 5 13 13 10 11 14 7 8 10 8 22 23 25 25 25 22 20 19 18 17 12 10
19 18 18 18 18 18 17 17 17 16 16 16 15 15 15 14 13 13 13 12 11 10 9 9 9 13 12 12 12 20 10 8 14 12 12 11 13 15 12 12 14 17 17 19 19 16 15 12 7 10 10 5 12 10 12 12 12 13 5 7 8 12 22 7 17 13 7 14 12 9 10 14 7 14 13 13 11 14 25 25 25 22 22 19 18 17 14 11
18 18 18 19 18 17 17 17 17 17 16 15 15 15 14 14 14 14 13 13 10 9 8 8 7 12 10 8 19 26 24 11 11 13 10 9 11 12 14 16 17 16 18 18 13 10 11 8 2 12 13 16 11 11 13 17 14 13 7 7 10 14 17 17 13 14 10 14 8 9 12 14 15 11 17 10 12 10 19 22 22 23 20 19 19 21 16 18
18 17 18 18 18 17 17 17 17 16 16 16 15 14 13 13 14 13 12 12 11 10 9 9 10 11 9 16 16 10 15 4 13 10 11 11 12 14 15 15 15 18 13 13 14 9 2 3 6 12 13 14 16 15 21 19 6 7 7 10 14 7 21 13 20 15 18 12 13 9 11 15 16 8 13 14 10 8 17 14 18 23 18 19 13 16 15 16
19 18 17 17 18 17 17 17 17 16 16 16 16 14 13 14 14 14 13 12 11 11 11 7 11 8 6 21 17 13 6 3 8 11 11 14 14 12 11 7 10 7 11 10 11 9 7 7 8 10 12 9 14 14 14 14 8 12 11 14 11 13 21 14 19 18 25 13 14 10 10 17 11 13 15 17 7 6 13 18 27 26 21 18 16 18 16 14
20 18 18 16 17 17 16 16 16 16 16 16 16 14 14 15 14 13 12 11 11 10 10 9 13 13 12 21 12 9 5 12 14 12 13 13 14 12 9 10 6 9 9 8 9 9 2 5 10 10 15 13 15 12 10 11 9 15 13 8 14 14 21 9 26 19 21 14 13 12 13 9 11 9 16 10 7 2 4 18 26 26 22 22 18 16 16 17
20 19 18 17 16 16 16 16 16 16 16 15 13 13 14 14 16 13 12 11 13 13 12 11 7 16 5 11 13 9 15 16 10 13 13 15 15 12 12 9 11 11 5 5 7 4 7 10 5 10 9 12 10 11 8 10 10 13 14 19 16 16 12 19 15 11 18 10 13 13 18 12 7 10 11 10 6 6 6 10 25 27 25 21 18 17 17 17
20 20 18 16 16 15 16 15 15 15 15 13 11 13 15 9 11 6 7 9 13 14 17 17 15 9 28 24 19 16 14 14 15 14 12 15 18 11 12 15 7 10 10 10 9 12 9 11 8 9 7 9 10 9 15 14 11 9 6 12 18 12 10 11 23 17 18 15 12 14 14 12 5 11 11 15 11 7 6 21 26 23 22 23 22 21 19 18
22 20 18 16 16 15 14 14 14 14 14 12 17 15 12 12 13 11 10 12 8 4 5 14 13 12 7 15 24 15 16 11 13 13 15 13 14 14 9 6 9 11 13 9 11 13 10 9 6 7 11 9 12 15 15 11 10 13 13 10 14 16 13 16 24 18 15 14 12 11 15 14 7 8 11 8 10 7 4 13 16 23 23 21 24 24 24 24
23 21 18 17 15 14 14 13 12 14 11 12 13 7 7 6 6 5 10 13 16 16 18 7 25 16 17 12 21 18 8 15 13 13 10 13 8 9 12 13 13 12 10 12 10 15 11 8 10 13 15 14 12 11 8 6 7 12 13 13 21 20 15 7 16 18 9 13 15 11 9 8 8 13 14 13 12 9 5 13 22 22 22 20 19 19 18 21
24 22 20 18 16 14 13 9 9 6 5 11 12 8 9 16 13 10 10 16 23 22 25 27 22 25 24 20 12 20 19 13 10 14 14 11 11 7 14 12 10 8 10 11 12 10 13 11 15 14 14 15 9 5 3 8 6 9 10 13 19 16 9 7 13 17 10 13 2 2 3 6 10 8 8 8 15 9 13 17 16 20 19 17 18 20 23 16
25 23 21 18 16 14 13 10 7 5 6 9 9 11 15 19 12 11 11 21 17 25 27 27 22 24 25 27 16 12 11 14 13 10 13 13 13 13 12 14 12 14 10 11 10 6 12 16 16 16 11 6 5 6 6 5 7 6 6 12 14 18 10 15 17 11 13 4 6 7 6 10 10 13 7 11 10 10 10 11 22 18 15 21 24 19 15 15
25 23 22 19 16 15 14 13 8 3 8 9 10 13 17 17 10 11 12 17 25 24 24 26 26 24 25 27 15 13 13 17 20 17 19 14 10 18 10 16 13 15 15 10 9 10 9 15 18 16 9 7 2 4 5 6 5 5 7 10 14 12 11 7 10 12 6 11 4 3 7 13 11 11 14 7 14 11 11 12 9 14 24 20 26 24 22 19
25 24 23 20 17 15 14 11 8 8 14 18 15 19 19 22 11 10 12 11 16 18 23 25 24 22 22 21 18 10 14 18 18 20 17 24 16 12 17 13 13 16 17 16 18 15 19 13 11 14 11 6 4 3 2 2 6 6 7 9 15 15 12 13 8 4 4 4 3 8 14 17 7 15 15 9 4 6 8 12 10 11 9 23 28 19 27 25
24 24 22 21 17 15 13 13 9 16 10 11 16 21 20 18 7 7 9 12 17 21 13 21 22 21 18 15 13 24 16 18 19 17 26 22 20 14 16 17 14 13 15 15 15 22 17 8 10 7 6 3 3 3 4 3 5 7 7 12 11 11 15 7 6 8 12 9 3 9 8 16 12 14 13 10 9 6 10 12 13 10 13 26 33 27 30 25
23 23 21 20 17 14 13 10 8 10 11 21 20 15 12 6 11 4 8 10 12 15 19 20 22 24 23 22 13 19 10 25 18 21 23 21 14 17 16 20 15 13 16 15 12 16 12 5 5 7 5 5 3 5 4 7 8 5 10 3 10 18 12 8 3 9 3 7 10 11 12 17 11 15 11 11 13 7 10 11 7 10 12 26 30 31 34 25
23 22 20 19 16 13 8 6 15 18 16 15 12 13 7 10 4 6 11 10 10 15 19 13 18 17 20 17 17 11 12 20 11 16 23 20 17 12 14 10 12 15 15 11 10 16 8 10 8 8 4 2 5 6 8 6 4 11 3 5 10 12 9 7 9 8 6 6 6 10 15 13 13 17 8 5 16 8 9 8 10 8 11 13 26 24 30 25
23 21 20 19 15 8 8 18 19 16 15 13 17 16 10 10 7 7 10 9 18 14 16 12 12 10 8 18 16 18 13 14 23 20 16 19 10 10 15 14 17 12 10 8 12 12 4 10 9 8 6 5 8 8 8 13 17 11 6 4 10 9 7 8 11 7 7 4 10 6 8 10 12 16 16 8 11 13 13 7 8 6 5 14 27 34 35 31
23 21 19 19 17 11 13 11 12 16 12 10 14 14 16 8 8 7 8 9 10 20 17 19 11 7 9 15 19 17 19 15 12 16 13 16 13 7 14 15 18 19 22 13 16 6 7 9 11 10 9 6 9 12 15 12 15 12 6 5 4 7 11 8 6 6 6 14 11 8 7 15 9 8 11 8 15 6 9 10 7 5 14 16 15 17 15 11
23 21 17 18 12 8 10 10 18 20 15 14 12 12 10 10 7 8 7 11 8 12 15 10 11 14 14 23 19 17 22 15 10 22 16 14 14 8 17 11 16 15 17 18 12 11 12 4 6 8 6 8 9 11 17 18 15 13 6 7 8 7 9 11 11 13 8 7 8 7 7 6 14 12 13 11 16 11 11 7 9 13 10 12 8 14 16 10
25 21 17 10 11 10 7 11 19 22 19 14 8 9 6 7 7 6 5 12 11 15 19 11 16 13 19 20 15 16 17 17 15 17 10 10 10 13 9 15 12 12 8 10 11 6 15 9 9 10 9 13 9 15 9 5 7 6 7 6 4 9 7 11 10 4 10 10 4 2 10 9 16 5 7 10 5 12 11 7 8 12 17 17 12 13 14 17
27 24 16 12 16 15 10 14 9 18 10 5 5 7 7 7 9 11 13 7 17 18 14 16 17 22 23 16 15 19 23 15 13 16 11 17 8 11 11 12 10 8 9 6 13 8 14 12 8 10 11 10 9 6 12 6 4 2 4 6 8 10 7 10 5 9 7 11 4 12 10 8 11 14 13 9 3 9 7 7 16 16 16 15 13 14 15 16
30 25 23 22 15 13 19 24 18 16 14 7 8 4 8 6 12 9 17 9 14 11 11 13 14 21 17 15 21 20 17 17 13 19 17 16 12 14 14 21 10 11 11 6 7 6 12 12 10 7 12 15 5 7 7 10 7 3 6 7 8 11 7 7 5 7 10 10 10 16 12 15 9 12 15 10 8 10 10 11 12 16 15 14 15 12 16 17
32 30 21 12 21 23 17 10 12 11 8 6 4 6 8 9 14 7 15 14 16 8 15 22 19 18 19 21 18 18 19 18 14 24 20 13 14 9 17 18 16 12 13 3 7 3 7 10 13 9 11 16 12 8 11 8 3 11 7 15 15 14 13 7 4 6 6 8 7 9 12 13 5 16 14 12 10 11 14 17 15 13 11 9 15 19 17 16
35 28 15 12 14 22 21 20 14 8 9 7 7 11 11 17 11 12 12 20 20 18 21 11 23 11 13 17 14 21 14 16 20 15 18 13 12 13 13 11 16 16 11 5 7 9 12 11 10 17 9 20 12 12 10 9 5 10 17 6 5 9 10 11 12 8 6 7 9 8 12 9 11 11 8 5 14 16 16 17 18 13 10 16 19 18 16 14
20 10 7 12 12 13 19 19 11 8 8 7 10 13 17 15 12 15 16 14 22 21 15 13 15 14 11 12 13 21 22 15 16 15 9 17 15 18 15 17 20 17 9 18 8 9 7 16 10 14 13 13 2 6 8 9 9 11 13 8 14 10 11 6 3 4 8 6 16 10 10 16 5 6 6 4 11 11 13 13 14 11 10 15 15 15 13 12
16 16 13 13 21 17 14 15 15 12 9 10 11 15 14 22 21 23 21 21 21 14 18 9 10 13 4 9 13 15 18 19 15 18 13 7 16 17 19 17 13 10 15 12 5 9 7 14 18 8 16 15 6 5 9 4 6 6 7 7 16 4 7 13 7 5 8 9 13 4 8 7 7 19 11 4 12 10 12 13 13 14 17 16 14 13 12 10
17 14 18 24 25 17 15 18 13 13 12 11 14 9 15 24 17 22 17 25 21 13 15 6 10 10 13 14 11 15 8 15 6 15 13 13 21 15 21 20 18 7 6 15 10 6 8 12 14 12 12 8 14 7 6 6 4 7 11 10 15 12 9 10 10 9 8 9 11 8 6 9 12 14 11 10 15 6 11 13 15 17 15 16 16 17 14 12
10 11 20 21 19 21 17 17 15 11 11 16 13 13 20 28 23 22 23 27 21 20 11 8 13 14 10 8 17 17 13 12 6 9 12 12 22 12 15 14 13 9 9 13 10 6 5 7 14 11 12 13 14 12 7 5 7 15 9 12 7 8 9 6 13 6 9 8 5 12 3 10 8 8 17 7 9 2 7 10 15 16 15 16 15 16 16 14
10 13 18 14 17 13 14 15 10 9 14 16 12 22 14 22 23 22 26 24 25 16 8 14 13 13 12 14 15 17 11 16 9 13 16 8 14 8 8 8 14 10 9 8 6 6 7 7 6 13 13 15 15 9 9 8 8 8 7 9 7 10 6 7 6 9 10 10 8 11 12 11 13 7 5 6 6 4 8 7 8 13 16 16 16 16 14 13
10 9 20 21 17 19 17 11 9 16 17 14 16 22 20 26 20 22 22 15 15 8 12 15 17 14 12 13 15 18 16 10 17 19 14 16 8 8 6 8 11 7 12 7 5 4 9 5 7 7 13 9 15 14 7 8 5 6 5 6 10 5 10 13 18 16 11 10 7 7 8 9 12 9 9 3 3 6 4 12 14 10 16 15 16 14 15 14
9 8 14 9 17 16 17 10 16 10 17 16 19 25 27 17 27 23 23 19 11 13 9 16 14 18 12 13 11 5 9 10 13 14 13 15 12 10 10 9 11 10 14 12 6 6 6 3 6 5 8 9 13 16 15 15 14 15 4 4 8 10 13 10 10 13 12 16 11 6 6 9 10 9 7 9 9 10 4 6 10 16 17 16 16 15 13 14
11 16 23 21 7 16 11 9 9 14 16 21 18 25 26 29 20 19 17 11 19 18 16 12 15 14 13 15 10 11 9 16 14 14 12 8 14 14 14 15 14 15 11 10 11 10 9 4 5 8 9 12 13 14 18 15 13 13 9 6 7 12 6 10 12 13 13 6 5 4 6 10 11 11 9 15 16 11 9 7 21 18 13 16 16 14 15 13
17 19 19 14 3 9 9 13 9 7 15 20 20 24 19 28 23 22 20 15 22 17 16 10 14 10 13 9 11 15 9 11 6 17 15 7 10 16 12 10 18 14 9 4 8 5 8 5 10 5 10 14 13 12 15 14 15 13 12 13 5 6 9 6 9 7 10 3 3 5 11 3 13 10 16 18 18 19 22 14 21 13 10 15 16 13 13 13
18 15 16 15 11 7 15 12 12 10 14 16 19 15 22 22 15 17 16 14 12 16 11 14 13 12 15 12 18 16 10 7 12 8 12 12 13 14 17 10 16 17 13 8 10 6 8 3 6 5 6 6 6 5 10 13 13 13 9 12 10 5 7 11 8 12 11 9 6 9 8 4 5 15 14 13 13 14 19 22 15 13 8 7 11 13 13 14
8 11 13 15 14 12 15 9 11 14 13 14 10 13 18 20 15 16 13 19 9 17 17 15 11 11 12 11 10 13 16 9 11 7 9 8 9 16 13 15 13 13 11 12 9 8 5 4 4 5 7 9 10 15 8 13 11 13 14 16 11 4 11 8 6 6 8 6 14 7 3 3 7 10 10 11 11 9 9 15 11 11 13 13 10 11 9 11
12 9 19 18 21 10 8 8 12 12 16 10 16 7 10 12 15 20 9 15 14 15 20 16 11 9 8 6 7 8 9 13 10 15 11 15 15 11 13 18 20 15 11 9 8 6 4 5 3 5 7 11 13 17 18 14 14 12 12 9 10 15 8 9 7 11 5 10 13 5 7 10 4 6 7 8 7 7 7 11 6 12 10 12 13 18 15 12
11 11 13 15 12 12 18 10 17 18 20 12 8 16 11 12 8 11 7 6 14 14 17 14 15 13 16 12 6 10 6 8 10 11 16 19 20 14 12 13 9 7 8 3 7 7 7 7 4 6 9 14 15 16 14 17 15 16 18 14 13 12 13 13 10 12 7 7 15 3 4 11 9 7 6 6 6 11 10 6 7 8 13 10 13 14 9 11
17 13 14 19 18 17 19 14 16 16 17 18 8 12 11 12 12 13 11 8 7 13 19 12 15 14 23 27 24 18 19 10 8 9 10 11 11 7 8 11 13 8 9 2 5 5 7 4 5 8 12 12 13 13 13 14 12 12 11 8 7 10 8 8 6 6 7 8 9 8 4 8 10 12 12 12 15 19 19 15 15 18 12 12 14 11 12 12
22 20 19 24 16 15 13 16 14 12 8 22 15 16 20 9 12 13 13 10 8 8 13 11 18 21 20 25 27 23 16 11 7 9 9 9 12 9 6 6 3 7 14 10 8 5 10 8 6 4 5 8 10 12 11 11 13 17 16 19 19 6 9 10 10 6 7 4 6 7 8 9 12 14 14 15 17 17 21 21 16 15 15 6 2 7 8 10
15 13 15 19 21 14 20 15 15 18 19 20 17 16 17 21 17 21 17 24 20 23 15 11 20 17 20 24 22 19 18 15 12 8 10 11 8 7 4 6 7 5 10 9 4 6 8 5 3 4 6 7 10 12 13 12 13 16 14 8 7 9 10 8 15 11 11 14 12 14 16 11 11 13 7 14 14 16 16 15 16 16 17 17 9 14 12 14
21 14 11 14 13 12 14 13 14 16 17 14 20 16 19 21 22 26 16 21 24 26 28 20 17 16 16 19 17 17 19 19 17 14 10 11 10 13 10 9 8 7 5 6 3 10 8 4 4 3 5 9 9 11 14 12 14 16 7 9 12 9 8 7 6 14 11 9 17 13 8 7 11 17 22 20 11 12 12 12 15 13 18 22 20 18 10 14
Wind_Speed
11 11 11 11 11 11 11 11 11 11 12 12 11 12 11 11 11 11 10 10 11 11 11 11 11 12 12 13 14 15 13 9 12 9 8 18 10 16 14 5 10 16 9 2 2 3 5 7 8 8 8 5 3 5 5 7 4 2 3 3 6 6 8 9 8 4 3 2 2 5 4 2 4 3 2 5 3 1 13 16 9 11 10 13 15 16 14 14
13 12 12 11 11 11 11 11 11 11 11 11 11 12 12 12 11 11 11 11 11 11 11 11 11 12 12 12 13 14 11 10 11 12 18 11 11 13 8 8 9 9 5 2 4 6 7 7 9 8 7 4 2 4 4 2 2 4 2 3 9 5 11 8 8 6 3 1 1 2 2 2 0 2 1 3 1 3 13 11 15 16 15 17 17 15 14 15
12 12 12 12 12 11 12 12 12 12 11 11 12 12 12 12 12 11 11 11 11 11 11 11 11 12 12 13 12 12 10 9 8 11 16 17 22 14 11 10 11 9 6 4 5 8 9 8 9 8 5 5 3 6 6 4 5 6 3 6 8 6 9 11 11 7 4 3 3 4 4 2 4 4 2 2 3 1 14 10 11 17 16 17 15 15 15 14
13 12 13 13 13 13 12 12 11 11 11 11 12 12 12 11 11 11 10 10 10 10 10 10 11 12 12 12 12 9 8 8 4 5 3 6 18 18 12 11 10 10 3 6 6 7 8 11 9 9 4 7 4 7 5 4 5 3 5 5 5 4 6 7 10 11 4 9 4 5 4 4 2 5 1 2 6 3 5 16 18 19 19 18 18 17 15 14
13 13 12 12 12 12 12 12 12 12 12 11 11 12 12 12 12 11 10 10 10 10 10 10 11 11 11 12 11 7 7 2 2 0 3 6 17 16 13 10 9 7 6 2 4 9 11 12 12 6 5 3 6 4 7 6 8 1 8 11 12 9 10 13 6 4 4 6 7 4 4 2 3 0 1 1 4 2 8 14 18 18 19 19 18 16 15 16
14 13 13 13 12 12 12 13 12 12 12 12 11 12 11 11 11 10 11 10 10 10 10 10 11 11 12 13 8 6 3 3 4 2 4 8 12 12 12 10 8 3 3 3 4 6 9 10 9 5 3 4 4 5 4 8 6 8 6 5 6 7 8 4 10 1 1 3 5 5 4 3 1 3 3 3 5 3 16 17 18 16 16 16 16 16 13 14
14 14 13 13 12 12 13 12 12 13 12 12 11 11 11 12 11 10 10 10 9 9 10 10 10 11 11 12 7 3 2 8 7 2 8 7 10 9 7 6 6 3 2 3 7 7 7 11 7 4 4 4 6 8 11 7 7 6 5 4 10 11 10 8 9 5 5 5 2 4 6 5 4 4 2 3 10 20 19 18 17 15 13 14 14 13 14 13
14 14 14 13 13 13 13 13 12 12 12 12 12 12 11 11 11 11 10 10 9 9 9 8 8 10 11 8 2 3 3 7 6 5 8 8 5 5 6 3 5 4 4 7 8 10 11 11 6 4 6 5 3 9 8 11 7 9 10 7 7 8 8 8 9 3 2 0 4 6 6 7 5 3 3 10 16 17 18 16 15 13 13 11 12 12 12 12
15 14 14 13 13 13 13 13 12 12 12 12 12 11 12 11 11 10 10 9 9 8 8 9 9 9 9 4 2 6 5 5 6 7 8 7 6 5 5 5 6 6 5 7 9 11 9 6 7 5 4 7 8 11 8 6 7 8 7 6 5 4 7 6 3 3 3 1 4 5 6 8 12 6 3 14 17 18 18 19 16 15 14 13 11 10 10 11
15 14 14 13 13 14 14 13 13 12 13 12 12 12 11 11 11 10 10 10 9 8 7 7 8 8 8 4 4 1 4 8 7 8 8 7 7 6 6 5 9 6 6 9 10 10 10 8 8 7 11 8 8 7 7 6 5 3 3 3 5 7 11 6 5 3 5 4 4 6 7 8 7 6 0 15 16 18 19 19 16 15 15 13 11 8 7 9
15 14 14 13 14 14 14 14 13 12 12 13 12 12 12 11 11 10 9 8 8 8 8 8 7 7 5 4 3 4 1 7 4 7 10 7 8 7 8 6 9 7 10 9 10 12 13 14 9 3 3 2 2 6 5 5 6 8 4 7 4 5 6 3 2 5 3 5 9 6 7 7 3 4 5 6 15 16 17 16 15 13 13 11 12 10 7 7
15 14 14 14 14 14 14 13 13 13 13 12 12 12 12 12 11 10 9 9 8 8 7 6 6 4 5 5 4 8 6 4 9 7 8 8 6 8 8 7 8 10 10 11 12 12 11 7 4 3 2 3 3 5 6 7 5 8 2 3 5 7 9 5 5 7 4 4 8 6 4 8 1 6 9 8 7 11 18 17 16 14 13 13 12 11 8 7
14 14 14 14 14 14 13 13 13 13 13 12 12 12 11 11 11 10 9 9 7 6 5 5 3 4 4 3 9 11 14 7 7 8 7 5 5 6 8 9 9 11 12 11 8 4 8 5 0 4 4 6 4 3 6 11 6 8 4 2 3 7 9 9 4 8 6 4 6 5 4 8 9 7 10 7 8 6 14 15 14 12 12 11 10 11 9 11
15 13 14 14 14 14 14 14 13 13 12 12 12 11 10 10 11 10 9 8 8 8 6 5 3 4 2 7 5 5 11 4 10 7 7 6 7 8 11 10 10 11 8 8 10 5 1 0 2 5 3 6 4 8 11 8 3 1 2 2 5 4 8 5 7 10 12 5 9 6 4 8 10 2 8 9 7 5 11 9 12 11 12 11 7 8 9 10
15 15 14 14 13 13 13 14 13 13 12 12 12 11 11 11 10 10 9 9 8 8 7 5 3 2 1 7 8 10 3 1 4 5 7 8 8 5 8 5 7 4 5 7 3 6 4 4 5 2 3 3 5 5 6 5 3 3 1 6 3 7 11 7 10 12 12 4 9 6 4 9 8 5 10 11 4 3 9 12 16 13 13 11 9 10 10 8
15 14 14 13 13 14 13 13 13 13 12 13 12 12 12 11 10 9 8 7 7 6 4 3 5 4 4 7 4 4 2 3 5 6 7 8 8 8 6 6 4 5 6 5 4 4 1 1 2 3 5 5 7 6 5 5 3 3 7 5 5 6 11 3 14 13 15 4 9 8 5 3 4 4 7 4 5 1 2 13 16 16 15 14 11 9 9 11
16 15 14 13 12 13 13 12 12 13 13 12 11 11 11 9 9 10 8 7 5 5 4 2 2 6 1 0 7 3 4 5 5 6 6 8 8 7 5 4 4 6 4 2 3 2 2 3 2 3 3 5 3 2 3 5 5 5 4 8 7 9 5 7 9 7 12 6 4 5 4 7 2 3 5 5 4 4 3 7 14 14 13 12 11 11 11 11
16 15 14 13 12 12 12 12 11 12 12 11 10 9 8 7 8 5 4 3 4 5 6 6 6 3 9 6 6 6 6 6 7 7 7 8 10 6 7 5 4 6 5 4 3 4 2 2 3 3 2 3 3 4 5 7 5 4 3 6 8 6 7 7 7 6 11 8 7 8 8 8 1 4 7 9 5 5 5 15 14 12 12 12 10 10 10 11
18 16 14 13 12 12 11 11 10 11 11 10 14 13 8 7 4 3 3 3 2 1 1 3 4 4 2 8 15 7 7 6 8 7 7 7 7 7 5 3 4 5 4 3 2 6 1 1 1 2 5 4 6 8 9 7 5 7 6 4 5 8 4 6 10 9 10 8 8 6 7 8 5 4 6 5 5 5 2 10 9 13 12 10 12 13 13 13
18 17 14 13 12 11 11 10 10 10 9 7 6 2 1 1 1 1 3 5 6 7 8 3 11 7 8 7 6 8 2 10 6 7 5 7 3 6 5 5 5 5 4 5 4 6 4 3 5 7 8 9 8 7 5 4 4 5 4 7 9 12 6 1 10 7 5 6 7 7 6 5 5 8 7 9 6 6 4 11 12 14 14 12 11 11 9 10
19 17 16 14 13 11 10 7 7 4 4 5 6 2 1 5 5 1 5 8 13 13 15 14 13 14 12 9 2 11 7 3 2 6 7 5 4 3 3 3 3 4 5 5 4 3 4 6 8 9 10 10 7 3 0 3 3 3 6 6 10 9 6 3 7 9 4 6 1 0 1 4 5 5 5 4 8 6 7 12 11 14 11 9 12 13 14 10
20 18 17 15 13 11 11 9 6 4 4 3 1 3 3 7 6 1 3 5 7 14 15 17 13 12 14 16 8 6 6 2 5 4 5 8 4 4 3 6 4 7 5 5 5 1 6 8 10 11 8 5 1 0 2 3 4 4 3 6 6 9 4 6 7 4 5 3 2 2 4 6 6 9 1 8 5 4 6 9 15 10 8 11 12 12 9 8
20 19 18 15 13 12 11 10 4 2 2 3 3 4 5 9 6 4 4 4 10 11 12 14 14 14 14 14 6 8 7 7 7 7 5 7 4 9 4 7 7 8 6 5 6 5 4 8 13 11 6 5 2 3 4 4 3 3 5 4 6 7 4 2 6 5 3 3 0 1 4 7 6 5 9 3 8 6 6 7 8 12 16 13 16 15 13 11
20 19 18 16 13 12 11 9 7 3 5 8 7 9 9 8 7 5 3 3 5 9 10 10 13 12 12 9 4 4 5 4 7 11 7 10 7 6 5 5 7 7 9 9 11 9 11 9 6 8 7 4 3 2 1 0 3 3 4 5 6 9 5 5 3 2 2 2 2 3 5 8 4 4 7 5 2 4 4 6 6 3 6 15 9 10 14 14
19 19 18 17 14 12 10 11 4 7 3 4 6 11 13 10 3 4 3 3 3 6 7 10 8 10 8 4 2 7 8 4 8 6 10 12 9 5 6 4 4 6 7 8 10 13 11 5 7 5 4 2 1 2 1 2 1 2 4 7 8 7 5 3 2 5 5 3 1 5 2 5 7 5 8 6 2 4 5 8 8 6 9 17 13 14 12 13
18 18 17 16 14 11 11 5 3 3 3 6 9 9 7 3 3 3 2 2 5 3 6 5 6 6 4 7 4 7 4 9 10 6 9 10 8 6 4 7 3 7 10 10 6 3 5 2 3 4 3 3 1 3 2 4 4 0 4 2 4 10 7 3 0 4 1 1 4 6 6 4 5 6 6 7 5 2 4 7 5 6 9 17 14 16 13 12
19 18 16 15 13 11 3 2 6 9 6 4 4 8 4 4 2 2 2 1 3 3 5 2 6 1 3 6 7 6 4 7 5 7 12 10 8 4 3 5 3 5 4 0 3 4 1 4 4 5 1 1 2 3 3 2 2 3 1 3 6 7 6 5 3 5 2 3 2 2 6 4 4 8 4 4 5 3 5 5 7 6 7 11 16 14 16 13
19 17 16 15 13 6 2 6 10 6 6 7 7 9 4 6 4 3 3 1 3 3 4 2 3 1 2 9 9 5 6 6 3 4 11 10 4 2 5 6 6 5 3 2 5 6 2 4 4 3 3 3 4 4 5 6 4 4 4 3 5 5 4 4 5 4 3 3 4 2 3 1 3 7 8 3 4 7 9 5 6 5 2 7 20 20 20 19
18 17 14 15 14 8 5 3 4 7 5 4 8 6 6 5 4 2 1 1 1 1 3 5 4 2 1 6 8 6 7 5 3 6 5 9 7 1 5 7 6 8 13 6 7 1 2 6 7 6 5 3 3 5 7 5 5 7 3 1 1 4 4 4 3 3 2 4 5 5 2 3 3 4 4 4 6 4 4 6 5 4 11 11 10 9 9 4
18 17 14 13 9 3 3 4 8 11 7 7 7 5 6 6 2 1 1 3 1 2 2 1 1 5 4 8 8 8 11 4 1 7 8 5 4 1 2 1 3 5 7 7 7 7 4 2 4 3 3 3 3 5 8 10 10 4 4 4 2 3 4 5 4 2 2 1 3 4 2 3 3 4 6 5 3 4 6 4 5 8 7 9 5 10 10 5
20 17 14 9 2 3 1 4 10 12 12 8 4 5 3 1 1 1 1 2 1 2 4 2 5 4 6 9 5 7 8 7 6 8 3 2 1 4 1 5 1 3 3 3 6 2 4 1 1 2 6 1 1 5 3 3 3 5 2 2 1 4 3 4 3 2 1 2 2 0 3 5 5 2 4 5 4 6 7 5 5 8 12 11 8 8 10 11
22 20 13 5 7 4 3 5 2 8 4 3 3 2 1 1 1 2 3 1 4 7 4 4 6 5 11 9 5 6 5 5 5 3 4 5 3 3 5 5 2 1 3 3 6 3 6 6 3 4 6 6 3 2 7 4 2 1 3 3 4 2 2 2 1 2 1 2 1 8 6 3 3 7 7 1 1 5 4 5 10 11 11 10 9 10 10 10
24 20 18 11 8 5 9 14 10 8 9 4 4 1 0 1 3 3 3 1 3 3 1 5 3 9 10 9 7 6 7 7 4 3 6 7 7 7 7 10 5 4 3 2 2 0 5 5 2 1 2 5 2 3 2 5 3 1 3 2 3 1 1 2 2 1 2 4 4 4 7 5 2 5 8 7 3 7 7 7 8 11 9 10 10 8 10 10
25 23 10 5 10 11 8 4 5 4 5 3 1 1 1 1 3 3 4 3 7 4 9 6 9 12 11 6 6 5 6 10 6 7 11 3 7 4 6 11 10 5 4 0 2 1 2 4 6 1 2 5 3 4 6 3 1 5 3 7 7 6 2 2 1 1 2 3 3 1 1 3 1 4 7 7 4 8 9 10 8 7 7 6 10 12 11 10
27 19 8 5 6 10 13 11 8 4 3 2 0 2 3 4 3 2 3 3 6 8 11 7 10 6 4 5 6 11 5 4 11 6 9 5 5 4 6 6 8 6 3 1 2 0 5 3 5 8 5 10 6 6 5 3 3 2 5 4 1 3 5 3 4 2 1 1 3 2 2 4 3 3 5 1 6 11 11 11 10 8 6 11 11 11 9 8
15 5 2 3 5 5 11 9 6 4 3 1 2 3 7 4 3 3 4 4 7 5 7 7 5 4 4 4 2 10 12 4 9 5 2 7 7 7 6 4 6 11 2 6 3 2 2 5 2 5 9 9 1 1 2 3 0 3 4 2 7 6 6 2 1 1 2 2 4 2 3 5 1 1 4 1 5 6 9 9 9 7 7 11 9 8 8 7
7 7 4 4 8 7 7 8 7 6 4 3 2 4 3 5 10 11 6 11 11 8 5 4 1 1 0 2 1 9 5 6 7 7 4 2 4 5 5 8 9 5 7 6 1 0 3 6 8 3 8 7 4 2 2 1 2 2 2 3 8 2 4 5 2 0 1 3 4 1 3 3 2 4 3 2 5 6 8 8 9 10 12 11 9 8 8 7
6 5 7 10 15 9 7 10 8 6 4 3 4 5 2 7 6 11 7 12 9 8 5 3 1 3 3 4 4 7 2 7 3 6 3 6 4 3 9 5 12 3 5 8 4 2 4 4 6 4 6 1 4 2 2 3 2 1 5 1 2 3 3 5 2 1 1 1 2 2 3 3 6 5 4 5 8 4 6 8 10 11 10 11 11 11 9 8
3 3 6 10 8 10 8 10 8 6 4 3 4 4 6 9 11 11 12 11 11 6 2 2 2 3 5 2 6 9 2 4 1 1 2 3 5 3 4 6 3 7 7 9 5 1 2 1 5 6 7 6 7 4 1 2 4 4 4 5 2 3 4 1 4 2 4 3 0 5 1 2 1 3 7 5 5 2 4 5 9 10 10 10 9 9 10 9
3 2 5 4 3 6 8 9 5 4 3 6 4 5 5 8 8 12 14 13 9 6 1 2 1 3 3 5 6 6 5 7 1 2 3 2 3 2 4 6 3 2 7 6 2 3 2 3 1 6 7 9 4 2 4 3 2 4 1 2 2 1 0 3 2 0 3 3 2 3 3 4 7 3 3 3 2 0 4 5 4 5 9 9 10 10 8 8
3 1 6 6 8 7 10 5 2 5 4 3 5 7 9 8 7 9 11 11 6 3 1 3 3 3 4 4 3 10 5 5 5 5 2 4 2 1 2 4 6 3 3 4 2 1 1 2 2 2 6 4 6 6 5 1 0 1 2 3 6 1 2 3 7 3 2 3 1 1 1 5 5 3 6 3 0 2 2 9 9 7 7 7 8 8 9 9
2 2 4 5 9 10 9 4 2 2 3 5 6 6 7 8 11 14 13 12 7 2 4 2 4 5 4 3 3 2 1 0 2 4 3 4 4 3 3 2 5 6 5 3 2 2 2 1 2 1 2 4 8 10 9 8 5 7 2 1 5 5 5 3 1 5 3 3 2 2 1 3 3 4 2 5 5 5 3 3 7 10 9 7 8 8 7 9
2 6 13 16 2 10 5 2 2 3 4 5 7 12 13 12 9 8 7 2 4 2 3 2 3 3 4 5 3 4 2 2 3 2 2 3 4 9 8 11 10 8 5 3 6 4 5 1 2 2 3 5 9 9 11 10 8 7 5 2 1 3 3 5 5 6 5 2 0 1 1 2 4 5 6 10 12 8 6 4 14 8 7 7 8 8 9 8
4 5 6 8 1 1 2 3 3 4 4 6 9 10 9 9 9 11 8 2 2 4 5 2 3 4 2 3 3 3 1 1 0 6 5 4 1 11 7 8 13 6 5 1 2 2 1 1 4 0 2 6 6 6 7 7 6 3 2 6 2 3 6 2 3 2 3 1 0 1 3 1 6 6 9 9 10 13 15 9 12 8 4 6 7 6 6 8
5 4 5 5 3 1 4 3 5 4 6 6 6 6 5 6 8 8 6 3 0 2 3 2 5 2 2 4 6 7 5 1 1 1 3 2 3 8 7 5 11 6 6 5 8 3 3 0 2 2 2 1 1 1 3 6 6 3 3 6 6 4 4 6 2 3 2 4 4 1 1 2 2 8 9 8 8 9 11 10 10 7 4 4 5 5 6 7
2 3 4 5 3 1 3 3 3 3 4 4 5 4 5 7 6 5 7 6 1 4 4 5 4 7 4 5 3 4 7 6 1 1 3 2 2 5 7 8 10 5 6 10 6 4 1 1 2 2 3 5 5 4 0 5 4 5 9 8 6 3 8 5 2 2 1 1 5 4 1 2 5 6 6 7 7 6 6 4 6 7 6 6 7 6 2 5
3 2 5 7 8 3 4 3 3 3 4 4 4 1 4 4 4 6 5 4 9 6 7 8 3 2 2 4 2 2 2 5 6 6 4 7 5 2 9 12 10 9 8 5 6 3 2 1 1 1 1 2 4 8 9 6 5 4 5 5 7 10 4 4 1 3 1 3 6 1 3 4 2 3 4 4 3 4 4 5 4 7 6 5 5 7 10 6
3 3 3 2 3 4 9 4 8 8 9 7 0 5 5 5 2 2 2 2 6 6 5 7 10 6 8 7 2 1 1 3 3 3 6 5 8 3 5 8 3 4 6 1 5 3 3 1 2 1 3 5 6 8 8 9 9 8 8 8 8 5 7 6 4 4 3 1 6 2 1 3 3 2 4 1 3 8 8 4 1 3 8 7 6 8 4 5
2 3 2 8 6 8 7 9 10 7 7 11 1 7 5 6 7 6 3 2 1 4 9 3 9 11 15 17 13 8 12 3 4 2 4 4 5 3 3 7 4 5 4 1 1 1 2 1 1 1 3 3 4 5 7 6 4 5 5 5 4 7 4 4 4 3 2 3 4 3 2 3 6 7 8 6 8 9 8 8 9 12 8 3 5 6 5 7
6 6 7 9 4 7 7 8 6 7 5 11 6 7 9 5 8 8 6 5 2 4 8 6 11 14 12 17 14 8 7 6 4 4 4 6 5 4 2 2 0 1 4 1 2 1 4 2 3 1 1 2 4 8 8 7 7 7 8 8 9 2 4 2 2 4 4 2 4 4 5 5 4 2 5 5 8 9 12 13 10 8 10 4 0 4 5 7
3 3 3 5 9 6 7 4 6 6 7 10 6 8 9 14 10 12 10 15 12 11 9 6 11 8 14 15 13 12 11 10 7 6 5 4 3 2 2 2 3 1 3 3 1 1 3 1 2 1 3 3 3 5 7 6 6 6 6 5 5 5 5 3 4 2 5 3 6 9 9 5 7 8 4 5 8 11 11 10 10 10 12 12 7 10 6 5
5 3 3 3 2 7 3 5 7 8 7 6 9 10 7 12 14 11 4 9 15 14 13 11 9 9 9 10 11 10 12 12 11 10 4 5 4 6 5 4 5 3 2 3 1 4 2 2 1 1 0 3 5 3 7 6 7 8 4 6 7 6 2 2 3 10 7 5 10 7 3 3 6 10 13 13 7 7 8 7 7 7 9 11 11 10 6 3
Wind_Direction
325 321 321 321 318 316 315 313 312 309 313 315 314 310 308 307 305 300 299 304 306 304 305 306 311 315 313 315 319 320 326 314 304 295 267 241 220 228 248 218 184 198 189 223 253 256 262 218 227 239 253 250 227 237 252 273 255 252 220 197 252 236 257 248 246 265 219 68 336 50 78 54 329 10 93 334 84 170 82 82 65 87 106 118 119 130 133 127
323 323 320 319 318 316 314 313 314 313 312 309 309 308 308 309 307 304 304 304 306 308 307 312 313 309 313 316 319 322 323 299 288 276 247 236 214 227 192 154 154 174 161 230 230 225 244 224 223 217 234 241 190 245 173 235 225 215 228 170 231 219 247 264 270 282 304 61 92 150 97 68 290 25 14 318 10 95 77 74 95 88 93 106 117 131 129 128
321 320 317 317 316 313 312 312 311 312 312 311 308 310 311 307 307 306 306 308 309 308 308 310 312 315 313 314 316 324 321 298 285 257 260 235 222 228 194 169 168 155 179 213 224 233 230 234 212 214 209 244 211 239 198 233 198 224 211 230 249 247 266 271 281 291 273 352 83 46 61 357 323 352 148 216 272 49 118 112 101 113 119 124 125 129 133 133
322 321 319 317 316 314 312 309 308 308 310 310 312 312 308 308 308 309 307 309 308 306 307 311 313 311 310 312 318 326 303 285 269 246 248 214 191 197 189 177 167 171 194 245 256 253 264 270 252 207 207 211 242 237 238 208 219 183 203 239 249 262 279 277 286 347 344 53 27 45 7 352 310 278 119 33 5 324 128 141 146 137 139 139 141 142 144 146
325 320 314 312 310 311 309 309 311 311 308 307 307 309 311 309 312 311 313 312 309 308 312 313 309 310 313 314 322 311 305 4 96 4 306 191 166 171 176 179 169 170 184 267 282 277 274 276 271 230 219 227 230 244 240 232 213 261 206 216 232 250 263 271 276 345 17 20 11 21 353 249 274 21 208 197 201 141 139 149 141 142 141 141 145 148 152 155
320 317 313 312 311 312 310 309 307 305 303 304 306 307 306 306 308 309 309 311 317 314 310 308 311 313 315 316 309 295 282 91 264 212 130 128 146 159 171 175 170 161 163 219 243 267 278 269 250 247 222 225 245 233 241 240 179 227 254 251 245 234 251 286 288 206 50 26 355 340 294 309 348 303 291 244 124 152 133 140 136 142 149 147 144 150 154 156
319 316 314 312 313 312 309 306 304 305 306 304 303 301 304 305 307 308 309 316 312 311 317 316 313 313 323 310 272 273 253 278 312 188 136 153 158 162 163 142 112 121 169 222 233 241 247 251 242 235 247 230 238 254 259 255 225 231 255 224 246 258 261 270 281 44 70 77 301 283 315 313 341 317 253 100 115 120 132 132 137 142 140 143 147 154 153 157
320 316 313 313 314 311 306 306 304 302 304 305 304 305 303 303 303 308 308 306 308 313 312 309 309 319 332 331 280 216 188 256 239 130 151 138 137 134 133 143 139 137 187 219 229 231 244 256 226 223 254 215 201 218 244 254 234 221 236 240 271 285 278 280 281 293 92 39 280 294 303 282 283 250 195 116 117 129 124 124 130 134 139 143 149 156 151 147
319 316 314 314 314 311 307 305 305 303 302 304 303 300 301 304 305 306 306 304 309 313 313 311 319 322 323 291 302 331 260 218 154 140 137 147 153 141 165 168 176 169 198 224 237 251 266 249 238 218 235 229 247 255 254 242 264 230 230 204 228 254 284 276 308 319 294 227 241 253 246 259 256 258 208 131 129 134 128 127 136 147 143 153 158 156 152 145
319 316 313 313 314 311 308 304 305 306 304 301 301 298 297 298 301 301 302 304 303 305 309 314 315 327 309 276 278 354 251 123 112 138 150 162 146 158 198 212 164 185 201 223 230 239 243 239 220 211 235 271 267 268 291 276 242 222 226 201 222 249 262 253 221 268 250 233 224 216 246 249 244 183 325 139 146 137 134 139 147 149 154 151 152 142 139 135
322 315 313 314 314 310 307 305 306 306 300 299 301 302 300 298 298 299 296 297 300 301 303 305 312 314 299 281 287 239 241 130 148 149 159 164 159 170 204 218 172 196 213 232 231 231 240 248 249 282 228 235 347 285 261 248 314 306 271 276 280 276 273 278 294 252 270 210 222 221 241 255 244 162 199 163 151 135 136 143 148 149 147 145 139 141 141 135
322 319 316 315 312 308 306 306 306 302 301 298 296 298 298 297 296 295 296 296 296 295 298 302 311 290 268 267 240 229 259 129 161 155 155 162 177 193 204 225 178 206 207 226 239 238 235 251 340 23 236 357 254 294 269 292 256 272 324 5 310 301 282 285 257 272 253 259 198 218 290 281 231 209 182 180 160 149 148 151 155 150 143 135 143 145 136 115
324 321 319 316 311 308 305 307 304 300 300 298 296 297 298 296 296 293 294 294 282 284 292 305 305 270 301 310 227 232 249 267 146 146 142 186 186 201 220 213 210 213 218 238 270 272 250 249 27 295 305 307 294 229 303 300 268 240 270 175 304 284 274 247 236 256 214 224 196 147 258 270 248 220 168 165 161 167 153 156 151 150 137 134 144 145 128 112
328 324 322 315 312 308 308 306 303 300 298 300 298 297 298 297 294 293 288 275 279 287 293 294 289 293 276 247 268 256 222 219 131 153 169 191 204 203 213 221 225 227 236 247 255 279 334 97 23 302 325 290 301 340 314 308 325 34 283 186 219 247 258 239 216 220 236 182 197 140 217 267 267 196 163 152 175 185 157 161 140 134 127 133 140 136 127 137
332 328 320 316 312 311 309 305 302 301 302 302 301 300 302 295 292 290 284 282 264 253 264 269 240 269 193 271 259 255 107 23 160 194 168 195 218 218 220 224 253 260 244 255 299 314 285 351 4 338 276 276 274 281 279 282 283 214 296 273 269 195 254 237 210 208 220 195 171 149 243 248 258 216 153 162 166 172 153 142 142 138 138 134 138 140 140 141
333 327 322 320 317 310 306 305 304 305 304 302 303 303 294 292 293 286 280 266 282 295 273 261 210 219 331 290 296 6 110 179 222 193 175 210 203 227 187 200 223 241 249 258 257 304 342 7 219 220 262 274 264 242 265 320 295 225 191 249 234 209 243 252 210 200 208 165 149 159 224 290 295 208 158 150 157 129 94 131 144 139 142 139 147 153 139 128
335 332 327 320 315 310 310 310 308 305 304 302 306 298 295 290 283 272 269 261 258 220 223 258 113 176 20 264 353 254 180 215 214 183 174 210 215 210 178 180 212 225 221 284 212 228 246 214 153 269 256 248 237 288 302 278 286 288 223 224 227 227 217 246 188 191 189 152 158 171 227 244 278 198 146 136 155 147 162 125 145 143 144 143 149 156 136 137
340 333 329 321 315 318 313 308 306 304 305 306 295 290 290 298 318 293 255 237 220 228 226 250 267 292 264 268 275 220 188 188 211 176 189 194 225 234 183 185 192 225 166 246 215 234 138 234 145 212 284 250 240 233 199 232 202 236 243 254 285 270 212 158 174 206 183 155 165 197 214 251 259 174 141 161 163 101 173 130 161 153 141 151 147 140 130 136
343 339 330 328 323 318 315 310 310 311 313 319 293 269 272 288 269 231 278 160 147 41 337 211 154 133 209 210 215 253 199 174 175 159 193 214 205 238 243 187 202 190 198 192 244 196 157 261 273 269 270 259 239 222 215 225 308 323 333 256 256 266 241 205 200 166 178 160 169 179 214 237 224 208 175 143 148 149 164 119 128 129 145 144 151 155 153 146
347 342 337 330 327 318 315 313 308 314 324 320 311 253 208 22 29 29 204 227 241 225 258 184 203 259 288 302 171 222 191 130 184 186 185 216 170 215 266 183 232 202 211 190 210 199 153 167 213 226 230 234 237 238 239 260 275 316 323 320 320 319 275 269 139 166 152 144 183 188 216 238 216 211 187 177 153 158 132 119 133 144 151 157 156 147 131 136
347 345 339 332 325 323 316 316 311 317 347 317 298 317 321 296 339 14 191 219 218 224 238 254 214 226 251 274 210 193 134 179 252 173 221 157 236 138 211 202 220 255 231 232 224 230 155 184 238 231 226 227 219 160 151 3 19 350 335 331 319 315 314 314 145 176 154 111 272 23 309 267 269 244 209 199 147 161 159 120 144 151 149 140 142 146 156 147
347 345 342 338 331 324 320 314 308 315 297 277 298 255 261 257 278 358 26 291 246 226 234 247 251 243 246 250 239 157 149 178 218 207 196 150 198 194 171 198 196 236 237 223 250 250 202 213 236 232 233 234 101 50 15 39 1 353 13 318 319 301 325 337 73 46 71 55 251 349 341 302 319 309 240 169 154 166 172 136 148 152 149 150 152 149 137 152
344 345 344 335 328 321 319 314 320 14 286 199 211 222 249 251 292 23 353 274 271 255 239 235 246 250 258 260 216 180 169 190 198 206 194 173 166 202 180 191 206 229 233 217 200 174 230 258 239 234 201 199 204 58 52 29 6 336 326 336 286 278 340 354 314 89 68 115 118 356 358 298 310 319 310 171 140 166 162 154 141 138 160 169 167 161 160 151
340 341 342 340 327 324 310 316 305 287 224 226 249 238 249 278 296 53 40 254 295 285 243 224 224 235 238 247 159 174 217 183 203 192 177 175 198 168 230 231 234 220 229 213 214 192 209 230 235 211 174 158 174 123 87 84 311 289 225 243 282 295 307 8 258 19 47 4 111 42 4 326 336 336 319 299 131 132 156 130 118 180 162 170 157 152 157 160
338 338 338 335 333 320 314 308 287 235 202 194 245 248 253 263 336 99 88 299 254 257 224 256 213 215 233 206 174 208 179 250 236 177 179 175 185 177 218 220 247 256 266 242 212 222 240 216 129 113 147 175 98 30 208 140 279 302 249 209 233 263 304 337 4 54 18 354 314 100 21 302 290 298 277 268 353 132 172 141 185 171 110 138 154 168 174 170
335 335 334 334 329 320 313 321 225 323 214 242 248 259 226 209 29 16 61 309 292 259 150 239 142 207 184 202 194 207 171 226 221 224 171 179 197 204 164 235 186 239 239 256 246 191 210 218 105 128 72 9 55 160 238 138 212 193 276 221 231 258 267 282 244 65 79 172 268 123 155 262 312 292 275 269 281 244 201 169 177 139 118 140 160 170 175 176
332 332 331 331 331 325 319 257 354 307 304 289 319 321 29 53 15 51 54 298 305 219 155 8 167 266 200 166 197 117 215 251 226 183 164 168 216 158 227 263 242 248 261 341 30 309 78 202 116 92 143 168 322 325 277 198 156 255 238 345 324 314 302 287 289 147 207 199 309 160 130 186 299 284 266 285 280 284 224 158 142 141 138 134 160 164 173 179
329 330 330 324 321 309 267 326 332 326 258 279 307 320 28 21 21 50 78 304 266 157 139 229 214 5 284 164 194 172 225 295 81 165 148 156 192 160 192 238 252 270 283 359 250 247 128 125 124 145 155 144 197 209 231 203 204 210 195 187 249 261 280 275 259 241 194 114 287 284 173 124 246 266 277 258 264 271 219 180 134 118 164 175 154 171 174 185
325 326 326 327 323 277 256 272 319 264 247 300 322 326 13 13 50 89 164 139 273 187 6 162 9 139 217 166 196 220 229 238 171 205 143 161 178 122 199 232 263 273 276 241 222 224 219 164 197 179 142 204 209 241 263 232 201 248 241 52 357 355 335 349 327 306 316 149 235 230 197 203 276 272 296 311 286 278 200 149 154 107 78 72 61 120 165 139
322 322 322 328 317 212 229 229 231 245 274 310 312 349 8 24 23 44 31 284 17 264 155 78 306 188 195 181 204 192 235 233 223 167 158 159 193 83 234 233 271 317 293 320 266 176 250 146 124 133 162 205 209 229 237 256 237 175 151 259 359 354 314 319 307 299 35 136 257 227 240 150 267 271 219 242 239 195 188 162 156 136 89 82 90 105 131 163
319 315 314 310 256 310 249 244 243 244 251 264 290 357 14 7 155 162 204 260 297 225 119 133 198 195 184 201 181 212 233 242 213 158 173 75 217 170 347 314 238 271 311 320 309 281 247 180 224 191 181 269 331 301 302 275 303 100 53 65 32 330 295 308 311 32 206 280 264 77 240 237 245 283 260 256 277 164 151 148 128 101 103 91 88 90 86 86
318 310 288 228 239 321 202 241 306 347 343 317 25 27 42 357 265 160 218 354 291 298 278 185 211 202 199 211 244 174 207 233 264 152 145 159 182 173 194 211 190 183 309 274 283 309 285 256 195 229 154 183 217 309 300 310 255 70 59 50 68 294 19 320 18 344 232 203 285 358 340 3 242 215 244 291 48 28 42 123 125 117 104 103 98 97 96 97
318 306 298 248 232 224 238 250 295 302 316 0 43 37 69 134 251 209 250 320 268 198 20 303 243 209 221 188 210 225 177 235 186 217 185 183 175 199 198 202 202 179 213 243 294 296 270 261 248 237 151 187 158 173 284 282 324 115 140 138 115 287 297 252 267 182 309 310 296 315 330 279 257 287 249 238 179 113 82 91 106 103 102 103 106 92 81 79
314 310 305 212 193 211 232 247 259 303 322 15 30 2 253 211 242 243 265 234 262 264 308 254 248 255 207 193 179 215 185 209 207 189 180 194 169 187 223 212 212 211 180 234 263 198 11 345 290 181 251 160 190 176 187 188 218 215 181 156 179 166 158 211 116 150 216 227 273 312 95 234 328 246 300 258 187 94 95 96 97 93 105 93 80 79 72 72
311 298 267 254 231 235 233 239 247 258 279 272 287 182 174 231 262 254 268 269 249 246 235 263 300 312 245 195 190 198 216 181 216 237 195 189 197 194 186 213 216 201 151 86 271 355 237 244 240 202 180 156 179 199 208 255 274 283 213 148 109 220 136 155 194 141 149 306 341 330 198 200 208 237 277 330 97 95 99 101 91 82 73 76 81 77 78 70
310 307 229 242 201 237 204 213 213 204 222 215 188 217 214 203 227 183 218 236 236 263 302 237 224 252 258 254 238 275 178 218 176 227 298 193 192 198 188 198 216 200 157 168 177 305 186 238 280 231 131 166 168 355 249 105 152 269 32 143 220 194 114 117 0 173 149 43 262 214 313 287 284 289 239 252 104 112 107 109 113 112 83 79 84 87 84 81
328 317 293 245 236 230 192 182 173 168 157 189 196 243 229 252 244 270 286 280 298 319 329 359 292 352 34 280 227 229 203 186 181 171 246 9 282 244 213 201 195 180 193 132 25 204 133 270 296 332 156 159 155 205 16 97 105 79 328 255 338 12 124 120 177 24 127 165 256 194 223 278 216 276 259 171 130 164 125 135 119 107 103 100 104 106 108 97
309 282 268 259 245 241 202 176 163 153 160 198 225 242 268 271 250 264 292 294 303 306 277 120 236 177 275 298 292 277 128 182 160 153 270 134 278 207 248 238 174 176 109 92 108 303 64 1 305 349 328 96 160 139 223 282 93 25 234 266 29 7 353 321 91 263 301 271 263 285 203 234 195 233 306 223 169 190 152 142 123 123 117 119 117 115 110 104
257 292 301 255 234 205 230 165 168 152 184 224 242 256 239 248 270 275 277 285 275 292 330 31 353 208 173 214 289 312 160 209 99 289 185 180 228 296 7 350 105 76 52 72 72 353 43 198 300 331 347 351 348 106 174 324 324 239 268 304 207 134 191 134 187 190 130 234 13 305 323 262 291 186 232 254 214 173 147 137 141 144 136 132 130 122 116 112
275 300 267 268 236 190 181 141 136 181 203 220 225 235 289 277 263 256 250 249 265 247 197 319 249 302 226 184 178 280 279 271 297 280 271 189 249 304 47 328 84 355 33 70 86 89 349 118 268 289 348 10 341 12 179 142 268 359 43 301 339 277 158 92 352 140 169 191 196 205 299 317 288 254 219 188 125 76 145 148 147 135 133 132 130 127 122 123
294 220 279 274 266 127 105 94 122 190 219 266 249 264 253 252 264 270 285 288 280 88 41 336 339 311 307 329 248 205 229 192 218 259 233 305 116 326 258 232 153 103 124 63 50 353 92 24 204 307 348 334 275 284 340 22 187 177 157 187 191 89 33 51 301 327 4 41 273 74 234 241 272 317 338 60 308 74 156 116 121 107 129 120 119 121 127 124
324 295 250 336 94 99 107 126 223 184 219 216 229 221 244 245 261 273 278 275 295 327 92 277 297 282 285 275 294 295 352 285 193 220 201 215 357 16 283 265 173 138 121 128 141 352 137 162 99 291 234 264 287 316 329 326 337 297 227 176 106 138 105 98 127 278 324 259 220 153 146 267 244 303 344 51 12 357 347 73 73 122 130 125 117 120 121 124
295 274 297 305 243 120 112 217 236 208 216 241 259 254 257 270 274 266 269 314 289 208 225 201 253 299 259 239 278 295 334 278 272 245 228 207 87 79 16 22 44 56 75 23 57 324 29 83 35 296 306 314 330 326 314 325 328 337 338 338 40 285 170 168 179 187 166 222 313 17 233 255 285 304 7 25 10 340 348 55 127 131 123 116 120 125 125 116
293 285 301 300 254 282 120 197 243 256 246 243 239 260 260 269 258 252 241 259 303 323 295 299 226 235 313 10 348 302 186 309 128 266 319 93 65 60 43 17 39 38 61 244 106 259 60 299 126 34 354 341 338 335 340 348 41 47 310 316 24 38 33 71 61 6 21 254 137 84 261 296 278 7 14 25 40 24 36 38 107 94 78 108 121 125 117 112
280 239 231 271 259 139 203 173 208 246 268 264 262 256 297 275 264 271 288 254 210 283 323 325 327 62 308 8 339 339 337 155 352 221 218 57 114 125 107 92 84 79 56 76 79 113 104 247 77 118 160 169 268 89 36 343 337 318 340 346 346 5 358 30 23 19 53 301 328 150 202 256 321 27 30 13 31 45 58 58 22 48 68 99 109 111 108 113
314 348 303 345 345 249 253 290 290 243 282 289 313 277 276 278 288 316 333 282 227 357 331 328 314 14 348 10 359 350 338 327 250 359 352 96 200 132 132 101 91 103 107 67 61 69 104 56 114 151 156 195 216 256 246 359 339 345 321 325 308 27 35 45 86 80 206 212 347 264 151 179 52 44 35 24 24 49 71 66 101 72 33 37 37 30 77 127
296 23 8 342 322 340 11 320 326 328 281 263 261 299 277 281 296 300 352 298 45 16 344 299 307 8 354 356 343 329 303 308 347 0 16 9 260 187 146 109 101 103 94 82 90 76 67 34 302 31 269 233 288 303 316 321 291 289 314 304 346 333 359 30 80 236 207 32 312 263 57 22 259 96 60 48 6 33 83 146 137 113 115 104 84 46 344 36
358 339 33 23 267 303 342 344 5 325 327 330 320 354 350 330 339 327 303 10 6 12 26 341 0 6 333 303 253 238 278 270 359 15 6 26 6 24 98 103 90 107 88 76 107 115 133 146 262 206 286 297 293 291 290 298 297 287 280 284 291 321 349 348 296 285 11 212 229 246 45 314 315 37 157 144 2 24 15 55 200 137 129 136 122 138 176 58
19 314 328 350 355 317 288 316 332 316 342 347 327 2 346 17 358 349 8 316 101 40 29 26 336 20 35 43 48 35 8 10 355 350 56 354 21 332 28 49 74 123 80 54 41 124 83 190 238 229 290 302 307 307 304 288 281 300 301 303 311 324 319 351 326 300 314 260 258 276 7 10 21 3 62 68 71 64 57 58 50 27 2 91 133 162 144 144
11 353 331 334 318 298 322 321 316 343 51 12 33 351 348 17 1 334 355 20 48 27 29 6 12 13 30 44 41 49 14 8 2 32 341 35 348 10 23 91 238 75 127 175 131 29 106 268 143 54 43 341 343 329 322 327 331 312 307 312 309 328 13 349 17 339 30 342 343 36 77 57 338 0 65 66 62 58 45 39 27 24 28 15 317 213 197 182
309 318 305 304 320 309 321 355 37 51 39 9 12 1 6 2 25 8 51 31 40 23 6 57 37 18 42 40 31 18 359 350 345 341 352 359 19 312 73 296 32 35 16 16 29 32 112 238 64 68 48 315 336 313 304 311 320 326 323 337 354 21 21 340 27 311 57 11 20 43 43 23 329 0 16 31 60 59 56 39 28 28 37 31 20 359 340 43
336 292 302 280 295 293 332 16 30 43 30 8 4 8 0 30 26 27 20 0 25 29 15 31 34 62 39 29 19 354 338 328 320 315 324 325 327 327 324 337 351 12 19 9 63 112 146 109 80 73 22 249 256 321 332 359 7 357 329 348 356 338 320 43 35 42 36 69 58 59 14 347 16 31 34 12 23 60 61 46 39 38 42 44 37 36 37 82